World > North America > United States > Michigan > Lennon  

Lennon, MI Hourly Weather Updates

Feedback E-mail the Weather

Quick Clicks

Lennon, MI Weather Maps

°F °C°F °C
Lennon Weather Map
UTC Time: 5/19/2024, 17:47
Your Time:

Lennon, MI Regional Weather

Expires:202405191800;;490020
ASUS43 KDTX 191710
RWRMI 
MICHIGAN HOURLY REGIONAL WEATHER ROUNDUP
NATIONAL WEATHER SERVICE DETROIT/PONTIAC MI
ISSUED BY NATIONAL WEATHER SERVICE GRAND RAPIDS MI
100 PM EDT SUN MAY 19 2024

NOTE: "FAIR" INDICATES FEW OR NO CLOUDS BELOW 12,000 FEET WITH NO
SIGNIFICANT WEATHER AND/OR OBSTRUCTION TO VISIBILITY.


MIZ047>049-052>055-059>063-066>070-074>076-081>083-191800-
SOUTHEAST LOWER MICHIGAN
  
CITY           SKY/WX    TMP DP  RH WIND       PRES   REMARKS
ADRIAN         SUNNY     85  61  44 SW10      29.98F TC  29           
ALMA           SUNNY     81  58  46 W3        29.95S TC  27           
ANN ARBOR      SUNNY     84  63  49 SW8G17    29.96F TC  29           
BAD AXE        MOSUNNY   81  62  52 W8        29.93F TC  27           
DETROIT CITY   SUNNY     86  62  44 VRB6G18   29.96F TC  30           
DETROIT        MOSUNNY   85  63  47 W13       29.97F TC  29           
FLINT          MOSUNNY   84  65  52 SW6G16    29.94F TC  29           
GROSSE ILE     MOSUNNY   72  64  75 S7        29.97F TC  22           
HILLSDALE      SUNNY     83  50  31 S8        29.98F TC  28           
HOWELL         SUNNY     84  63  49 SW6       29.95F TC  29           

CITY           SKY/WX    TMP DP  RH WIND       PRES   REMARKS
JACKSON        SUNNY     83  63  50 SW10      29.96F TC  28           
LANSING        SUNNY     82  65  56 W8G18     29.95F TC  28           
MASON          SUNNY     84  59  43 W8        29.96S TC  29           
MIDLAND        SUNNY     82  61  49 NW7       29.94S TC  28           
MONROE         MOSUNNY   85  61  43 W3        29.96F TC  30           
MT. CLEMENS    MOSUNNY   80  66  61 SE8       29.93F TC  27           
PONTIAC        MOSUNNY   83  60  45 SW12      29.95F TC  28           
PORT HOPE        N/A     69  60  73 CALM      29.93S TC  21           
PORT HURON     SUNNY     81  63  54 S7        29.97S TC  27           
TRI CITIES     SUNNY     82  62  50 SW6       29.95R TC  28           
YPSILANTI      SUNNY     86  61  42 SW12      29.97F TC  30           
$$

SKY/WX - Weather  TMP - Temperature  DP - Dew Point  RH - Humidity
WIND - Wind Direction/Speed PRES - Barometric Pressure VSB - Visibility
WCI - Wind Chill Index E13G22 Wind - East Wind 13 mph/Gusts of 22 mph

Trending Headlines

Trending Entertainment Headlines

Lennon Radar Loop

Use the map search tool if you want to place a location marker on the radar map...

Lennon Quick Facts

National Two Day Weather Forecast


E-mail the Lennon Weather Forecast

Voice your opinion or tell us about page issues...